time_stamp(utc),avg(mph),gust(mph),direction(deg),12m_air_temp(f),sonic_u(cm/s),sonic_v(cm/s),sonic_w(cm/s),pressure,2m_air_temp(f),pyranometer(W/m^2)
"2017-12-11 00:02:42+00",13.0,15.0,,35.5,-563,-212,20,1017.48,34.7,0
"2017-12-11 00:07:42+00",12.7,15.7,,35.3,-537,-149,31,1017.71,34.6,0
"2017-12-11 00:12:42+00",14.3,17.3,,35.3,-609,-127,37,1017.82,34.6,0
"2017-12-11 00:17:42+00",14.2,16.2,,35.3,-597,-131,26,1017.84,34.6,0
"2017-12-11 00:22:42+00",15.3,17.3,,35.6,-658,-112,29,1017.81,34.8,0
"2017-12-11 00:27:42+00",14.7,16.7,,35.5,-619,-181,17,1017.9,34.9,0
"2017-12-11 00:32:42+00",13.3,15.3,,35.3,-548,-164,31,1017.76,34.7,0
"2017-12-11 00:37:42+00",12.5,14.5,,35.1,-549,-240,3,1017.86,34.6,0
"2017-12-11 00:42:42+00",12.1,14.1,,34.9,-514,-234,29,1017.96,34.3,0
"2017-12-11 00:47:42+00",11.0,13.0,,34.7,-475,-185,28,1017.94,34.2,0
"2017-12-11 00:52:42+00",11.8,12.8,,34.6,-520,-218,17,1017.91,34,0
"2017-12-11 00:57:42+00",10.6,12.6,,34.7,-466,-202,18,1017.89,33.9,0
"2017-12-11 01:02:42+00",11.7,13.7,,34.9,-501,-181,44,1017.85,33.9,0
"2017-12-11 01:07:42+00",11.7,13.7,,34.9,-507,-225,24,1017.91,33.9,0
"2017-12-11 01:12:42+00",11.5,13.5,,34.8,-505,-219,16,1017.96,34,0
"2017-12-11 01:17:42+00",12.2,13.2,,35,-536,-212,24,1017.93,34,0
"2017-12-11 01:22:42+00",12.2,15.2,,35,-529,-185,30,1017.94,34.1,0
"2017-12-11 01:27:42+00",12.8,14.8,,35,-542,-178,36,1017.94,34.2,0
"2017-12-11 01:32:42+00",12.5,14.5,,35.1,-541,-228,16,1017.96,34.2,0
"2017-12-11 01:37:42+00",12.2,14.2,,35.1,-526,-244,20,1017.83,34.2,0
"2017-12-11 01:42:42+00",12.0,14.0,,35.2,-503,-259,21,1017.82,34.2,0
"2017-12-11 01:47:42+00",12.6,14.6,,35.2,-498,-286,20,1017.74,34.2,0
"2017-12-11 01:52:42+00",12.6,14.6,,35.2,-467,-308,20,1017.81,34.1,0
"2017-12-11 01:57:42+00",12.9,13.9,,35.1,-478,-303,18,1017.7,34,0
"2017-12-11 02:02:42+00",11.5,12.5,,35.1,-419,-282,20,1017.66,33.9,0
"2017-12-11 02:07:42+00",11.3,14.3,,35.2,-433,-262,19,1017.64,33.9,0
"2017-12-11 02:12:42+00",11.9,13.9,,35.1,-455,-275,21,1017.84,33.9,0
"2017-12-11 02:17:42+00",11.9,14.9,,35.4,-468,-269,14,1017.79,33.9,0
"2017-12-11 02:22:42+00",11.6,13.6,,35.4,-438,-279,16,1017.81,34,0
"2017-12-11 02:27:42+00",11.1,13.1,,35.5,-446,-248,20,1017.78,34.1,0
"2017-12-11 02:32:42+00",11.6,13.6,,35.4,-463,-264,22,1017.68,34.1,0
"2017-12-11 02:37:42+00",11.6,12.6,,35.3,-464,-263,20,1017.74,34.1,0
"2017-12-11 02:42:42+00",11.4,13.4,,35.1,-454,-255,30,1017.7,34,0
"2017-12-11 02:47:42+00",12.5,14.5,,35.2,-472,-296,32,1017.77,34,0
"2017-12-11 02:52:42+00",12.1,15.1,,35.3,-428,-313,27,1017.79,34.2,0
"2017-12-11 02:57:42+00",13.1,15.1,,35.4,-470,-334,28,1017.83,34.4,0
"2017-12-11 03:02:42+00",14.7,16.7,,35.5,-518,-371,27,1017.99,34.5,0
"2017-12-11 03:07:42+00",14.2,16.2,,35.5,-506,-361,11,1017.89,34.7,0
"2017-12-11 03:12:42+00",14.6,18.6,,35.7,-480,-416,30,1018.07,34.9,0
"2017-12-11 03:17:42+00",16.6,18.6,,35.8,-567,-445,9,1018,35.1,0
"2017-12-11 03:22:42+00",16.4,18.4,,35.8,-648,-376,28,1017.76,35.2,0
"2017-12-11 03:27:42+00",13.3,17.3,,36,-491,-331,25,1017.71,35.4,0
"2017-12-11 03:32:42+00",13.8,16.8,,36.1,-476,-379,25,1017.71,35.5,0
"2017-12-11 03:37:42+00",15.0,18.0,,36.2,-510,-407,21,1017.52,35.6,0
"2017-12-11 03:42:42+00",16.7,19.7,,36.2,-575,-435,13,1017.6,35.8,0
"2017-12-11 03:47:42+00",17.2,19.2,,36.2,-630,-423,12,1017.64,35.8,0
"2017-12-11 03:52:42+00",14.4,17.4,,36.4,-506,-379,36,1017.7,35.9,0
"2017-12-11 03:57:42+00",15.2,18.2,,36.3,-520,-410,30,1017.64,36,0
"2017-12-11 04:02:42+00",13.5,15.5,,36.3,-561,-288,28,1017.68,36,0
"2017-12-11 04:07:42+00",14.5,16.5,,36.2,-604,-305,29,1017.56,36,0
"2017-12-11 04:12:42+00",15.9,17.9,,36.1,-627,-359,21,1017.6,35.9,0
"2017-12-11 04:17:42+00",13.2,14.2,,36.2,-545,-277,28,1017.61,35.9,0
"2017-12-11 04:22:42+00",15.1,17.1,,36.2,-604,-342,19,1017.64,35.9,0
"2017-12-11 04:27:42+00",14.2,17.2,,36.2,-550,-322,13,1017.64,35.9,0
"2017-12-11 04:32:42+00",12.2,15.2,,36.2,-489,-267,11,1017.61,35.9,0
"2017-12-11 04:37:42+00",13.1,14.1,,36.2,-487,-325,37,1017.47,35.9,0
"2017-12-11 04:42:42+00",14.3,16.3,,36.3,-590,-313,25,1017.48,35.9,0
"2017-12-11 04:47:42+00",14.0,16.0,,36.4,-568,-309,25,1017.54,36,0
"2017-12-11 04:52:42+00",13.0,15.0,,36.4,-546,-272,22,1017.55,36,0
"2017-12-11 04:57:42+00",11.9,15.9,,36.4,-499,-247,36,1017.48,36.1,0
"2017-12-11 05:02:42+00",10.5,11.5,,36.4,-425,-231,21,1017.49,36.2,0
"2017-12-11 05:07:42+00",10.8,13.8,,36.5,-423,-231,5,1017.33,36.1,0
"2017-12-11 05:12:42+00",12.2,13.2,,36.5,-447,-297,10,1017.17,36.2,0
"2017-12-11 05:17:42+00",10.5,12.5,,36.5,-413,-243,40,1017.09,36.2,0
"2017-12-11 05:22:42+00",11.6,12.6,,36.7,-455,-261,23,1017.13,36.2,0
"2017-12-11 05:27:42+00",13.3,15.3,,36.8,-477,-325,38,1017.03,36.3,0
"2017-12-11 05:32:42+00",12.9,15.9,,36.9,-471,-315,4,1017.04,36.4,0
"2017-12-11 05:37:42+00",11.1,14.1,,36.9,-393,-286,18,1017.08,36.5,0
"2017-12-11 05:42:42+00",9.8,11.8,,36.8,-339,-263,31,1017.13,36.5,0
"2017-12-11 05:47:42+00",12.8,14.8,,36.9,-439,-351,26,1017.05,36.5,0
"2017-12-11 05:52:42+00",12.4,14.4,,36.8,-435,-328,16,1016.94,36.5,0
"2017-12-11 05:57:42+00",11.8,13.8,,36.8,-444,-284,15,1017,36.5,0
"2017-12-11 06:02:42+00",11.3,13.3,,36.8,-434,-258,13,1016.98,36.5,0
"2017-12-11 06:07:42+00",10.6,12.6,,36.8,-431,-231,31,1016.99,36.5,0
"2017-12-11 06:12:42+00",9.3,12.3,,36.7,-357,-218,27,1016.96,36.5,0
"2017-12-11 06:17:42+00",10.7,12.7,,36.8,-396,-269,29,1016.86,36.5,0
"2017-12-11 06:22:42+00",12.4,15.4,,36.9,-457,-297,30,1016.85,36.5,0
"2017-12-11 06:27:42+00",11.4,12.4,,36.9,-462,-249,19,1016.87,36.5,0
"2017-12-11 06:32:42+00",11.6,12.6,,36.9,-485,-237,12,1016.83,36.4,0
"2017-12-11 06:37:42+00",9.2,12.2,,36.7,-373,-208,39,1016.76,36.4,0
"2017-12-11 06:42:42+00",11.6,12.6,,36.8,-463,-260,12,1016.82,36.4,0
"2017-12-11 06:47:42+00",11.2,13.2,,36.8,-415,-270,12,1016.7,36.4,0
"2017-12-11 06:52:42+00",11.7,13.7,,36.9,-431,-281,15,1016.71,36.4,0
"2017-12-11 06:57:42+00",11.3,13.3,,36.9,-442,-258,24,1016.62,36.4,0
"2017-12-11 07:02:42+00",13.2,15.2,,37,-484,-320,22,1016.67,36.4,0
"2017-12-11 07:07:42+00",13.2,15.2,,37,-544,-290,24,1016.55,36.5,0
"2017-12-11 07:12:42+00",12.2,13.2,,37,-456,-288,31,1016.43,36.5,0
"2017-12-11 07:17:42+00",14.7,16.7,,37.1,-599,-329,22,1016.46,36.5,0
"2017-12-11 07:22:42+00",12.6,14.6,,37.1,-541,-232,30,1016.37,36.6,0
"2017-12-11 07:27:42+00",11.4,13.4,,37,-487,-217,39,1016.37,36.6,0
"2017-12-11 07:32:42+00",13.9,15.9,,36.9,-596,-297,14,1016.38,36.6,0
"2017-12-11 07:37:42+00",13.5,15.5,,36.9,-587,-265,26,1016.39,36.5,0
"2017-12-11 07:42:42+00",13.0,16.0,,36.8,-558,-214,29,1016.38,36.5,0
"2017-12-11 07:47:42+00",11.7,13.7,,36.7,-503,-188,26,1016.34,36.4,0
"2017-12-11 07:52:42+00",12.6,14.6,,36.7,-554,-218,23,1016.34,36.3,0
"2017-12-11 07:57:42+00",13.0,15.0,,36.7,-563,-203,28,1016.31,36.3,0
"2017-12-11 08:02:42+00",13.4,15.4,,36.7,-581,-213,18,1016.31,36.3,0
"2017-12-11 08:07:42+00",12.8,15.8,,36.8,-551,-214,26,1016.4,36.4,0
"2017-12-11 08:12:42+00",13.6,16.6,,36.9,-591,-239,36,1016.29,36.4,0
"2017-12-11 08:17:42+00",14.7,18.7,,36.9,-620,-219,23,1016.33,36.5,0
"2017-12-11 08:22:42+00",11.3,14.3,,36.8,-474,-149,44,1016.36,36.6,0
"2017-12-11 08:27:42+00",14.5,17.5,,36.9,-614,-226,43,1016.24,36.6,0
"2017-12-11 08:32:42+00",15.2,17.2,,36.8,-633,-182,21,1016.28,36.5,0
"2017-12-11 08:37:42+00",15.0,17.0,,36.9,-626,-141,26,1016.23,36.6,0
"2017-12-11 08:42:42+00",16.5,17.5,,36.9,-694,-118,16,1016.24,36.6,0
"2017-12-11 08:47:42+00",12.9,14.9,,36.9,-553,-143,45,1016.35,36.6,0
"2017-12-11 08:52:42+00",14.6,17.6,,36.9,-625,-102,39,1016.37,36.7,0
"2017-12-11 08:57:42+00",14.1,16.1,,36.8,-612,-38,49,1016.29,36.7,0
"2017-12-11 09:02:42+00",14.5,17.5,,36.8,-624,-51,26,1016.44,36.7,0
"2017-12-11 09:07:42+00",15.0,17.0,,36.7,-654,-29,46,1016.33,36.6,0
"2017-12-11 09:12:42+00",15.2,17.2,,36.7,-666,154,69,1016.42,36.7,0
"2017-12-11 09:17:42+00",18.4,23.4,,36.4,-775,311,75,1016.46,36.6,0
"2017-12-11 09:22:42+00",21.0,25.0,,36,-768,544,63,1016.61,36.1,0
"2017-12-11 09:27:42+00",21.3,23.3,,35.5,-791,554,71,1016.58,35.6,0
"2017-12-11 09:32:42+00",17.2,21.2,,35,-616,513,78,1016.63,35.1,0
"2017-12-11 09:37:42+00",18.3,22.3,,34.7,-621,523,66,1016.65,34.8,0
"2017-12-11 09:42:42+00",17.4,20.4,,34.4,-590,508,60,1016.86,34.5,0
"2017-12-11 09:47:42+00",18.6,20.6,,34.3,-610,547,70,1016.75,34.3,0
"2017-12-11 09:52:42+00",18.1,23.1,,34,-568,564,58,1016.58,34.1,0
"2017-12-11 09:57:42+00",19.3,21.3,,34,-568,629,44,1016.55,34,0
"2017-12-11 10:02:42+00",17.7,18.7,,34,-559,553,62,1016.75,34,0
"2017-12-11 10:07:42+00",16.8,18.8,,33.9,-533,513,34,1016.77,33.9,0
"2017-12-11 10:12:42+00",15.8,17.8,,33.8,-491,496,60,1016.73,33.8,0
"2017-12-11 10:17:42+00",13.6,16.6,,33.8,-438,414,71,1016.78,33.8,0
"2017-12-11 10:22:42+00",15.2,16.2,,33.8,-524,428,41,1016.8,33.8,0
"2017-12-11 10:27:42+00",14.0,16.0,,33.9,-435,448,53,1016.82,33.8,0
"2017-12-11 10:32:42+00",17.4,19.4,,34,-601,498,45,1016.96,33.9,0
"2017-12-11 10:37:42+00",15.9,17.9,,33.8,-509,500,49,1016.84,33.8,0
"2017-12-11 10:42:42+00",15.6,17.6,,34,-541,427,64,1016.87,33.9,0
"2017-12-11 10:47:42+00",16.9,19.9,,34,-565,505,36,1016.86,33.9,0
"2017-12-11 10:52:42+00",16.3,18.3,,34.2,-576,431,46,1016.97,34,0
"2017-12-11 10:57:42+00",19.0,20.0,,34.7,-783,311,44,1017.01,34.2,0
"2017-12-11 11:02:42+00",15.8,16.8,,34.9,-661,267,53,1017.1,34.6,0
"2017-12-11 11:07:42+00",15.0,18.0,,35.2,-658,196,70,1017.1,34.8,0
"2017-12-11 11:12:42+00",16.4,18.4,,35.6,-724,123,46,1017.16,35.2,0
"2017-12-11 11:17:42+00",14.1,16.1,,35.8,-616,127,63,1017.34,35.5,0
"2017-12-11 11:22:42+00",14.6,16.6,,35.8,-643,88,38,1017.35,35.6,0
"2017-12-11 11:27:42+00",15.2,18.2,,36,-662,39,43,1017.4,35.6,0
"2017-12-11 11:32:42+00",16.2,19.2,,35.8,-718,9,38,1017.58,35.7,0
"2017-12-11 11:37:42+00",13.7,15.7,,35.6,-602,-9,26,1017.59,35.6,0
"2017-12-11 11:42:42+00",15.2,17.2,,35.3,-666,-23,30,1017.6,35.5,0
"2017-12-11 11:47:42+00",12.3,14.3,,35.1,-518,-86,26,1017.72,35.3,0
"2017-12-11 11:52:42+00",10.0,12.0,,34.9,-428,-131,20,1017.57,35.1,0
"2017-12-11 11:57:42+00",5.6,6.6,,34.8,-184,-158,0,1017.42,35,0
"2017-12-11 12:02:42+00",6.4,7.4,,34.8,-231,-149,3,1017.4,34.9,0
"2017-12-11 12:07:42+00",5.4,6.4,,34.8,-164,-173,6,1017.38,34.8,0
"2017-12-11 12:12:42+00",3.9,4.9,,34.9,-98,-128,12,1017.44,34.7,0
"2017-12-11 12:17:42+00",3.7,4.7,,34.9,-104,-117,8,1017.4,34.6,0
"2017-12-11 12:22:42+00",3.7,4.7,,34.8,-89,-130,2,1017.35,34.6,0
"2017-12-11 12:27:42+00",2.7,3.7,,34.9,-97,-53,10,1017.39,34.6,0
"2017-12-11 12:32:42+00",3.1,4.1,,35,-125,0,10,1017.51,34.6,0
"2017-12-11 12:37:42+00",3.7,4.7,,35.1,-155,17,10,1017.53,34.6,0
"2017-12-11 12:42:42+00",4.5,5.5,,35.3,-194,11,12,1017.69,34.7,0
"2017-12-11 12:47:42+00",4.4,5.4,,35.4,-188,33,16,1017.64,34.8,0
"2017-12-11 12:52:42+00",5.3,5.3,,35.6,-231,38,29,1017.68,35,0
"2017-12-11 12:57:42+00",5.4,6.4,,35.7,-231,39,13,1017.61,35.2,0
"2017-12-11 13:02:42+00",7.3,8.3,,35.8,-320,18,11,1017.52,35.3,0.2
"2017-12-11 13:07:42+00",6.5,7.5,,35.8,-282,12,42,1017.72,35.5,0
"2017-12-11 13:12:42+00",8.1,9.1,,35.7,-352,-1,18,1017.77,35.5,0.2
"2017-12-11 13:17:42+00",6.3,7.3,,35.6,-271,-19,25,1017.86,35.6,10.8
"2017-12-11 13:22:42+00",7.6,8.6,,35.7,-335,-14,16,1017.76,35.7,50.7
"2017-12-11 13:27:42+00",5.7,6.7,,35.8,-245,-5,29,1017.7,36.1,38.2
"2017-12-11 13:32:42+00",6.1,7.1,,36,-255,-58,40,1017.76,36.5,34.8
"2017-12-11 13:37:42+00",7.3,8.3,,36.1,-306,-100,18,1017.77,36.7,32.5
"2017-12-11 13:42:42+00",7.1,8.1,,36.1,-298,-122,21,1017.82,36.9,27.3
"2017-12-11 13:47:42+00",6.8,7.8,,36.1,-277,-117,24,1017.74,36.9,26
"2017-12-11 13:52:42+00",7.6,7.6,,36.1,-326,-132,13,1017.91,37,21.9
"2017-12-11 13:57:42+00",7.8,9.8,,36.1,-327,-136,26,1017.82,37,47.8
"2017-12-11 14:02:42+00",7.0,8.0,,36.3,-283,-95,44,1017.8,37.4,107.1
"2017-12-11 14:07:42+00",10.3,12.3,,36.7,-425,-87,40,1017.86,38.2,170.6
"2017-12-11 14:12:42+00",9.8,10.8,,36.8,-430,-178,29,1017.82,38.9,125.6
"2017-12-11 14:17:42+00",11.5,13.5,,36.9,-499,-19,23,1017.74,39.3,168.9
"2017-12-11 14:22:42+00",9.4,10.4,,37.2,-393,-74,53,1017.77,39.7,182.4
"2017-12-11 14:27:42+00",11.7,13.7,,37.8,-506,-28,54,1017.75,40.1,211.6
"2017-12-11 14:32:42+00",14.0,18.0,,38,-608,-8,42,1017.54,40.1,152
"2017-12-11 14:37:42+00",10.9,13.9,,38.3,-477,14,54,1017.56,40.1,179.5
"2017-12-11 14:42:42+00",15.2,16.2,,38.2,-672,141,53,1017.58,40,191
"2017-12-11 14:47:42+00",15.1,18.1,,38.4,-668,104,38,1017.62,40,197.2
"2017-12-11 14:52:42+00",14.4,16.4,,38.5,-646,85,48,1017.71,40.1,199.5
"2017-12-11 14:57:42+00",14.0,16.0,,38.5,-601,193,44,1017.63,40.2,208.8
"2017-12-11 15:02:42+00",12.6,14.6,,38.9,-509,233,48,1017.55,40.5,204.1
"2017-12-11 15:07:42+00",13.6,14.6,,39,-589,162,34,1017.51,40.7,215
"2017-12-11 15:12:42+00",14.9,17.9,,39.3,-649,176,42,1017.59,40.9,218.9
"2017-12-11 15:17:42+00",12.7,16.7,,39.5,-519,241,40,1017.36,41.1,225
"2017-12-11 15:22:42+00",11.6,14.6,,39.6,-479,237,50,1017.4,41.3,228.5
"2017-12-11 15:27:42+00",13.1,15.1,,39.7,-547,212,32,1017.19,41.5,230.5
"2017-12-11 15:32:42+00",13.7,15.7,,40,-554,262,96,1017.18,41.6,236
"2017-12-11 15:37:42+00",14.5,16.5,,39.8,-565,304,60,1017.16,41.7,238.4
"2017-12-11 15:42:42+00",11.9,14.9,,40.3,-472,271,99,1017.21,42,240.2
"2017-12-11 15:47:42+00",14.3,16.3,,40.1,-607,183,66,1017.35,42.1,245
"2017-12-11 15:52:42+00",17.1,19.1,,40.2,-689,312,54,1017.27,42.1,246.4
"2017-12-11 15:57:42+00",15.5,19.5,,40.1,-645,288,58,1017.28,42,248.8
"2017-12-11 16:02:42+00",14.9,16.9,,40.4,-608,284,75,1017.19,42.2,246.8
"2017-12-11 16:07:42+00",12.3,15.3,,40.8,-502,252,72,1017.21,42.4,256
"2017-12-11 16:12:42+00",15.2,20.2,,40.6,-645,251,66,1017.06,42.5,257.4
"2017-12-11 16:17:42+00",14.2,17.2,,40.8,-553,300,55,1016.99,42.7,258.5
"2017-12-11 16:22:42+00",15.3,17.3,,40.7,-653,229,89,1016.98,42.7,259.8
"2017-12-11 16:27:42+00",15.7,20.7,,41.2,-637,301,56,1016.71,42.9,243.9
"2017-12-11 16:32:42+00",20.7,22.7,,41,-826,411,60,1016.65,42.8,261.2
"2017-12-11 16:37:42+00",20.2,23.2,,40.9,-846,324,55,1016.58,42.6,255.6
"2017-12-11 16:42:42+00",15.9,17.9,,40.9,-620,360,59,1016.51,42.7,261.8
"2017-12-11 16:47:42+00",16.7,20.7,,41.2,-705,256,76,1016.39,42.9,261.7
"2017-12-11 16:52:42+00",19.1,20.1,,41.1,-835,223,65,1016.19,42.9,260.9
"2017-12-11 16:57:42+00",14.4,16.4,,41.3,-552,322,83,1016.18,42.9,261.3
"2017-12-11 17:02:42+00",18.7,20.7,,41,-712,447,46,1016.19,42.9,260.2
"2017-12-11 17:07:42+00",15.9,18.9,,41.3,-637,339,49,1016.24,42.9,257.3
"2017-12-11 17:12:42+00",14.0,15.0,,41.1,-580,242,35,1016.14,43.1,258.9
"2017-12-11 17:17:42+00",11.4,13.4,,41.3,-443,239,80,1015.87,43.3,256.8
"2017-12-11 17:22:42+00",12.2,14.2,,41.8,-499,244,41,1015.75,43.7,255.2
"2017-12-11 17:27:42+00",15.4,18.4,,41.5,-629,302,48,1015.77,43.7,253.4
"2017-12-11 17:32:42+00",15.2,17.2,,41.6,-594,316,52,1015.78,43.6,253.7
"2017-12-11 17:37:42+00",17.4,20.4,,41.4,-733,292,53,1015.72,43.5,252.4
"2017-12-11 17:42:42+00",15.8,17.8,,41.6,-671,286,61,1015.67,43.4,246.9
"2017-12-11 17:47:42+00",13.9,14.9,,41.6,-593,215,55,1015.72,43.6,248.1
"2017-12-11 17:52:42+00",14.4,16.4,,41.5,-576,277,48,1015.67,43.5,241.9
"2017-12-11 17:57:42+00",13.4,15.4,,41.6,-522,290,49,1015.49,43.6,242.2
"2017-12-11 18:02:42+00",12.5,13.5,,41.6,-460,327,41,1015.48,43.6,239
"2017-12-11 18:07:42+00",13.7,17.7,,41.9,-545,274,68,1015.29,43.8,234.6
"2017-12-11 18:12:42+00",13.0,15.0,,41.6,-539,226,23,1015.44,43.5,227.9
"2017-12-11 18:17:42+00",13.2,15.2,,41.8,-559,194,55,1015.42,43.6,230.5
"2017-12-11 18:22:42+00",12.5,13.5,,41.7,-543,148,44,1015.44,43.6,219
"2017-12-11 18:27:42+00",11.9,13.9,,41.8,-510,150,31,1015.46,43.6,208.3
"2017-12-11 18:32:42+00",11.5,13.5,,41.9,-452,247,27,1015.38,43.7,219.1
"2017-12-11 18:37:42+00",12.9,14.9,,42,-517,271,38,1015.54,43.7,222.3
"2017-12-11 18:42:42+00",14.0,16.0,,41.9,-588,238,44,1015.6,43.8,214.8
"2017-12-11 18:47:42+00",11.9,13.9,,41.9,-499,203,44,1015.65,43.8,193.8
"2017-12-11 18:52:42+00",11.9,12.9,,41.9,-452,293,29,1015.6,43.8,186.9
"2017-12-11 18:57:42+00",14.5,15.5,,41.9,-604,241,48,1015.49,43.7,207.6
"2017-12-11 19:02:42+00",10.3,11.3,,42.1,-445,182,58,1015.55,43.8,176.5
"2017-12-11 19:07:42+00",11.8,13.8,,42.1,-468,231,22,1015.53,43.8,151.5
"2017-12-11 19:12:42+00",8.6,9.6,,42.4,-303,192,94,1015.47,43.8,136.2
"2017-12-11 19:17:42+00",11.9,13.9,,42,-468,239,17,1015.42,43.6,68.5
"2017-12-11 19:22:42+00",13.8,15.8,,41.7,-539,290,51,1015.35,43,75.1
"2017-12-11 19:27:42+00",13.3,15.3,,41.5,-541,274,43,1015.26,42.5,49.9
"2017-12-11 19:32:42+00",12.1,13.1,,41.4,-443,317,35,1015.06,42.1,55.3
"2017-12-11 19:37:42+00",11.6,12.6,,41.4,-467,241,32,1015.2,42,57.4
"2017-12-11 19:42:42+00",14.3,16.3,,41.6,-551,312,41,1015.3,42.1,80.7
"2017-12-11 19:47:42+00",10.6,12.6,,41.5,-406,257,38,1015.22,42.3,115.4
"2017-12-11 19:52:42+00",11.2,12.2,,41.6,-440,221,18,1015.24,42.3,52.3
"2017-12-11 19:57:42+00",8.2,9.2,,41.5,-332,152,37,1015.39,42.3,59.6
"2017-12-11 20:02:42+00",9.5,11.5,,41.6,-346,234,47,1015.3,42.4,72.5
"2017-12-11 20:07:42+00",9.0,12.0,,41.7,-349,212,61,1015.16,42.5,82.7
"2017-12-11 20:12:42+00",10.7,13.7,,41.8,-409,249,47,1015.29,42.8,115.2
"2017-12-11 20:17:42+00",11.5,13.5,,41.6,-443,264,32,1015.36,42.9,83.3
"2017-12-11 20:22:42+00",10.1,12.1,,41.5,-383,256,37,1015.27,42.6,75.5
"2017-12-11 20:27:42+00",12.5,13.5,,41.5,-419,373,41,1015.31,42.5,81.8
"2017-12-11 20:32:42+00",11.1,12.1,,41.4,-378,334,39,1015.55,42.3,67.1
"2017-12-11 20:37:42+00",11.7,12.7,,41.4,-351,371,35,1015.59,42.1,34
"2017-12-11 20:42:42+00",9.6,11.6,,41.3,-355,221,23,1015.68,41.9,37.4
"2017-12-11 20:47:42+00",9.7,10.7,,41.2,-333,279,40,1015.73,41.6,29.1
"2017-12-11 20:52:42+00",9.2,10.2,,41.2,-337,238,29,1015.7,41.4,12.9
"2017-12-11 20:57:42+00",8.1,10.1,,41.2,-274,218,52,1015.5,41.3,0
"2017-12-11 21:02:42+00",7.9,8.9,,41,-308,166,28,1015.76,41.1,0
"2017-12-11 21:07:42+00",9.3,10.3,,40.9,-371,187,21,1015.79,40.7,0
"2017-12-11 21:12:42+00",8.7,9.7,,40.7,-343,184,19,1015.96,40.4,0
"2017-12-11 21:17:42+00",8.3,9.3,,40.7,-338,149,25,1015.9,40.1,0
"2017-12-11 21:22:42+00",7.7,8.7,,40.7,-317,139,23,1015.97,39.9,0
"2017-12-11 21:27:42+00",7.4,8.4,,40.4,-306,118,19,1016.12,39.7,0
"2017-12-11 21:32:42+00",8.1,9.1,,40.2,-338,118,29,1016.18,39.3,0
"2017-12-11 21:37:42+00",8.4,9.4,,40.2,-364,109,23,1016.27,39.2,0
"2017-12-11 21:42:42+00",7.7,7.7,,40.3,-336,51,21,1016.42,39.1,0
"2017-12-11 21:47:42+00",7.1,8.1,,40.1,-293,104,24,1016.31,38.9,0
"2017-12-11 21:52:42+00",7.1,7.1,,40.1,-295,106,19,1016.42,38.7,0
"2017-12-11 21:57:42+00",6.9,7.9,,40.1,-300,67,19,1016.54,38.3,0
"2017-12-11 22:02:42+00",7.4,8.4,,40,-318,75,22,1016.61,38,0
"2017-12-11 22:07:42+00",6.2,6.2,,39.7,-267,55,14,1016.59,37.7,0
"2017-12-11 22:12:42+00",6.3,6.3,,39.6,-267,64,14,1016.56,37.5,0
"2017-12-11 22:17:42+00",6.0,7.0,,39.8,-251,74,13,1016.41,37.3,0
"2017-12-11 22:22:42+00",6.1,6.1,,39.8,-262,57,15,1016.69,37.2,0
"2017-12-11 22:27:42+00",5.9,6.9,,39.7,-251,49,14,1016.67,36.9,0
"2017-12-11 22:32:42+00",5.8,5.8,,39.8,-243,58,12,1016.65,36.8,0
"2017-12-11 22:37:42+00",5.9,5.9,,39.8,-250,65,13,1016.66,36.6,0
"2017-12-11 22:42:42+00",6.1,6.1,,39.9,-255,75,14,1016.8,36.5,0
"2017-12-11 22:47:42+00",6.4,7.4,,40,-254,123,25,1016.89,36.5,0
"2017-12-11 22:52:42+00",6.2,6.2,,40.1,-236,142,21,1016.67,36.3,0
"2017-12-11 22:57:42+00",6.0,7.0,,40.1,-203,164,18,1016.7,36.4,0
"2017-12-11 23:02:42+00",4.5,4.5,,39.8,-135,130,5,1016.77,36.3,0
"2017-12-11 23:07:42+00",5.4,6.4,,39.5,-128,187,13,1016.69,36,0
"2017-12-11 23:12:42+00",5.0,5.0,,39.4,-105,179,9,1016.75,35.9,0
"2017-12-11 23:17:42+00",5.3,5.3,,39.2,-72,205,8,1016.75,35.6,0
"2017-12-11 23:22:42+00",5.1,6.1,,39.2,-72,199,8,1016.68,35.3,0
"2017-12-11 23:27:42+00",4.9,4.9,,39.2,-41,200,10,1016.48,35.2,0
"2017-12-11 23:32:42+00",4.4,4.4,,39.2,-14,178,13,1016.46,34.9,0
"2017-12-11 23:37:42+00",3.5,3.5,,39.2,10,136,7,1016.45,34.5,0
"2017-12-11 23:42:42+00",3.3,3.3,,39.1,39,109,0,1016.47,34.3,0
"2017-12-11 23:47:42+00",3.1,3.1,,38.7,113,49,-4,1016.4,34,0
"2017-12-11 23:52:42+00",2.6,2.6,,38.7,96,30,-1,1016.46,34.1,0
"2017-12-11 23:57:42+00",2.9,2.9,,38.8,82,71,-3,1016.46,33.9,0
